Regional Weather Roundup
Issued by NWS

Home | Current Version | Previous Version | Graphics & Text | Print | Product List | Glossary On
Versions: 1 2 3 4 5 6 7 8 9 10 11 12 13 14 15 16 17 18 19 20 21 22 23 24 25 26 27 28 29 30 31 32 33 34 35 36 37 38 39 40 41 42 43 44 45 46 47 48 49 50
441
ASUS43 KBIS 270010
RWRND

NORTH DAKOTA REGIONAL WEATHER ROUNDUP
NATIONAL WEATHER SERVICE BISMARCK ND
700 PM CDT MON JUN 26 2017

NOTE: "FAIR" INDICATES FEW OR NO CLOUDS BELOW 12,000 FEET WITH NO
SIGNIFICANT WEATHER AND/OR OBSTRUCTIONS TO VISIBILITY.


NDZ001>003-009>011-017-270100-
NORTHWEST NORTH DAKOTA

CITY           SKY/WX    TMP DP  RH WIND       PRES   REMARKS
WILLISTON      MOSUNNY   83  40  21 SE13      29.95F
6HR MIN TEMP:  77; 6HR MAX TEMP:  85;

MINOT          SUNNY     77  40  26 SE8       30.01F
MINOT AFB      SUNNY     76  41  28 S6        30.00F
$$

NDZ018>021-031>035-040>046-270100-
SOUTHWEST NORTH DAKOTA

CITY           SKY/WX    TMP DP  RH WIND       PRES   REMARKS
BISMARCK       SUNNY     76  43  30 SE13      30.06F
6HR MIN TEMP:  70; 6HR MAX TEMP:  78;

DICKINSON      CLOUDY    76  32  20 S15       30.00F
GARRISON         N/A     76  40  27 S10       30.01F
6HR MIN TEMP:  67; 6HR MAX TEMP:  77;

HETTINGER ARPT PTSUNNY   79  37  22 SE13G25   30.05F
$$

NDZ004>008-012>016-024-026-027-054-270100-
NORTHEAST NORTH DAKOTA

CITY           SKY/WX    TMP DP  RH WIND       PRES   REMARKS
GRAND FORKS    MOSUNNY   74  40  29 MISG      30.07F
GRND FRKS AFB  SUNNY     72  41  32 NW6       30.08F
DEVILS LAKE    SUNNY     70  41  34 SW5       30.09F
$$

NDZ022-023-025-028>030-036>039-047>053-270100-
SOUTHEAST NORTH DAKOTA

CITY           SKY/WX    TMP DP  RH WIND       PRES   REMARKS
FARGO          SUNNY     73  37  27 W7        30.09F
6HR MIN TEMP:  70; 6HR MAX TEMP:  75;

JAMESTOWN      SUNNY     70  37  29 SW8       30.10F
$$





USA.gov is the U.S. government's official web portal to all federal, state and local government web resources and services.